Location: Menands
(42.6920°N, 73.7246°W)
Time: 08:00:21
(UTC+00:00)

SeaSat 1 - Pass Details

Date: 18 February 2026
Orbit: 737 x 740 km, 108.0° (Epoch: 11 March)

Event Time Altitude Azimuth Distance (km) Brightness Sun altitude
Rises 23:05:21 0° 140° (SE) 3,156 5.4 -7.1°
Reaches altitude 10° 23:07:38 10° 137° (SE) 2,238 4.6 -7.5°
Maximum altitude 23:12:24 58° 59° (ENE) 860 2.5 -8.3°
Drops below altitude 10° 23:17:12 10° 341° (NNW) 2,254 5.1 -9.2°
Sets 23:19:29 0° 338° (NNW) 3,182 5.9 -9.6°
